This demonstration page uses our WeatherBlox Daily Observations layout. Learn more.

Left ArrowRight Arrow

Hourly Observations for March 15, 2020

Temp ( °F °C ) Dew Point ( °F °C ) Humidity (%) Winds ( mph kmh ) Pressure ( in mb ) Visibility ( mi km ) Precip ( " mm )
12:53 am 00:53 Cloudy 36 2 N/A N/A NE 8 13 30.44 1031 10 16.0934 N/A
1:24 am 01:24 Cloudy 36 2 N/A N/A ENE 7 11 30.46 1031 10 16.0934 N/A
1:53 am 01:53 Cloudy 36 2 N/A N/A NE 9 15 30.45 1031 10 16.0934 N/A
2:53 am 02:53 Cloudy 36 2 N/A N/A NNE 6 9 30.46 1032 10 16.0934 N/A
3:53 am 03:53 Cloudy 34 1 N/A N/A NNE 9 15 30.48 1032 10 16.0934 N/A
4:53 am 04:53 Cloudy 34 1.1 30 -1.1 85 85 NNE 8 13 30.48 1032 10 16.0934 N/A
5:53 am 05:53 Cloudy 34 1.1 29 -1.7 82 82 NNE 14 22 30.5 1033 10 16.0934 N/A
6:53 am 06:53 Cloudy 34 1.1 30 -1.1 85 85 NNE 9 15 30.51 1033 10 16.0934 N/A
7:53 am 07:53 Cloudy 34 1.1 29 -1.7 82 82 NE 5 7 30.53 1034 10 16.0934 N/A
8:53 am 08:53 Cloudy 35 1.7 29 -1.7 78 78 ENE 8 13 30.55 1034 10 16.0934 N/A
9:53 am 09:53 Cloudy 35 1.7 29 -1.7 78 78 NE 12 19 30.56 1035 10 16.0934 N/A
10:53 am 10:53 Mostly Cloudy 37 2.8 29 -1.7 73 73 ENE 12 19 30.58 1036 10 16.0934 N/A
11:08 am 11:08 Cloudy 39 3.9 31 -0.6 73 73 NE 10 17 30.58 1036 10 16.0934 N/A
11:53 am 11:53 Cloudy 39 3.9 30 -1.1 70 70 NE 6 9 30.58 1036 10 16.0934 N/A
12:05 pm 12:05 Cloudy 39 3.9 30 -1.1 70 70 NE 6 9 30.58 1036 10 16.0934 N/A
12:53 pm 12:53 Mostly Cloudy 41 5 31 -0.6 67 67 VRB 5 7 30.57 1035 10 16.0934 N/A
1:09 pm 13:09 Mostly Cloudy 41 5 31 -0.6 67 67 ENE 6 9 30.57 1035 10 16.0934 N/A
1:48 pm 13:48 Cloudy 43 6 30 -1 61 61 NE 7 11 30.56 1035 10 16.0934 N/A
1:53 pm 13:53 Cloudy 42 5.6 31 -0.6 65 65 NNE 5 7 30.55 1035 10 16.0934 N/A
2:42 pm 14:42 Cloudy 43 6.1 32 undefined 65 65 NNE 9 15 30.54 1034 10 16.0934 N/A
2:53 pm 14:53 Cloudy 43 6.1 32 undefined 65 65 NE 8 13 30.53 1034 10 16.0934 N/A
3:10 pm 15:10 Cloudy 43 6.1 32 undefined 65 65 NNE 9 15 30.53 1034 10 16.0934 N/A
3:25 pm 15:25 Cloudy 44 6.7 32 undefined 63 63 N 12 19 30.52 1033 10 16.0934 N/A
3:46 pm 15:46 Cloudy 43 6.1 32 undefined 65 65 NNE 10 17 30.52 1033 10 16.0934 N/A
3:53 pm 15:53 Cloudy 43 6.1 32 undefined 65 65 NE 9 15 30.51 1033 10 16.0934 N/A
4:17 pm 16:17 Cloudy 44 6.7 32 undefined 63 63 ENE 10 17 30.52 1033 10 16.0934 N/A
4:40 pm 16:40 Cloudy 43 6.1 32 undefined 65 65 E 10 17 30.52 1033 10 16.0934 N/A
4:53 pm 16:53 Cloudy 43 6.1 32 undefined 65 65 E 9 15 30.51 1033 10 16.0934 N/A
5:53 pm 17:53 Cloudy 43 6.1 31 -0.6 63 63 ENE 8 13 30.5 1033 10 16.0934 N/A
6:53 pm 18:53 Cloudy 44 6.7 32 undefined 63 63 ENE 5 7 30.5 1033 10 16.0934 N/A
7:53 pm 19:53 Cloudy 43 6.1 32 undefined 65 65 NE 5 7 30.51 1033 10 16.0934 N/A
8:53 pm 20:53 Cloudy 43 6.1 32 undefined 65 65 NNE 5 7 30.5 1033 10 16.0934 N/A
9:53 pm 21:53 Cloudy 43 6.1 32 undefined 65 65 ENE 6 9 30.49 1033 10 16.0934 N/A
10:53 pm 22:53 Cloudy 42 5.6 32 undefined 68 68 NE 9 15 30.49 1033 10 16.0934 N/A
11:53 pm 23:53 Cloudy 42 5.6 33 0.6 71 71 N N/A 30.49 1033 10 16.0934 N/A

Powered by AerisWeather